map of LBV home
Great Circle Mapper logo
LBV - Airport
Location
City:  Libreville, Gabon
Name:Leon M'Ba
ICAO / IATA:FOOL / LBV

Details
Type:Airport (Aerodrome, Airfield)
Use:Public/Civil, Military, International (customs port of entry)
Latitude:027'31"N (0.458600)
Longitude:924'44"E (9.412283)
Datum:WGS 1984
Elevation:39 ft (12 m)
Variation:2.29W (WMM2015 magnetic declination)
0.13 annual change
Runways:1
Longest:9844 × 148 ft (3000 × 45 m), paved

Time
Time Zone:UTC+1
Local Time:

Weather
METAR:FOOL 290423Z 12008KT 8000 FEW008 FEW020CB SCT030 25/24 Q1012 NOSIG
TAF:FOOL 290500Z 2906/3012 16006KT 9999 SCT010 FEW020CB BKN040 PROB30
TEMPO 2910/2922 4000 TSRA BKN006 FEW016CB OVC036
BECMG 2923/3001 NSW SCT010 BKN040

Related Locations
Nearby:
Farthest:CIS: 12257 mi / 19725 km
Canton Island, KI

Find:

   beyond  
but within

Other Information
Maps:
NOTAMs:
Links:
Sources:

  
flag of Gabon   

Sectional Chart

Flight Planning
at skyvector.com

Satellite Image

Google Maps Satellite View

 

Copyright © 2004-2015 Karl L. Swartz. All rights reserved.
The Great Circle Mapper name and logo are trademarks of the Great Circle Mapper.
All other trademarks mentioned herein belong to their respective owners.
Please see credits for attibutions and further copyright information.

  Follow gcmap on Facebook Follow gcmap on Twitter Follow gcmap on Google+

hCard Microformat

Geo Microformat